Terminal Aerodrome Forecast
Issued by NWS Portland, ME

Home | Current Version | Previous Version | Text Only | Print | Product List | Glossary On
Versions: 1 2 3 4 5 6 7 8 9 10 11 12 13 14 15
000
FTUS41 KGYX 211743
TAFPWM
TAF
KPWM 211743Z 2118/2218 VRB03KT P6SM BKN100
      TEMPO 2210/2214 BKN020
     FM221400 09007KT P6SM BKN060=

USA.gov is the U.S. government's official web portal to all federal, state and local government web resources and services.